| time (UTC) | temp F | wind direction | speed knots | gust knots | rain 1hr in | rain 24hr in | rain mn in | humidity % | barometer mb |
| 20260504221119 | 78 | 233 | 1.7 | 2.6 | 0.00 | 0.00 | 0.00 | 38 | 1015.0 |
| 20260504220619 | 78 | 226 | 0.0 | 0.9 | 0.00 | 0.00 | 0.00 | 45 | 1015.0 |
| 20260504220105 | 78 | 315 | 1.7 | 1.7 | 0.00 | 0.00 | 0.00 | 38 | 1014.8 |
| 20260504215605 | 79 | 238 | 0.9 | 1.7 | 0.00 | 0.00 | 0.00 | 43 | 1014.8 |
| 20260504215552 | 80 | 259 | 1.7 | 2.6 | 0.00 | 0.00 | 0.00 | 37 | 1014.9 |
| 20260504214824 | 79 | 282 | 0.9 | 1.7 | 0.00 | 0.00 | 0.00 | 44 | 1014.9 |
| 20260504214105 | 79 | 250 | 0.0 | 2.6 | 0.00 | 0.00 | 0.00 | 45 | 1015.0 |
| 20260504213605 | 80 | 309 | 0.9 | 2.6 | 0.00 | 0.00 | 0.00 | 43 | 1015.1 |
| 20260504213105 | 80 | 265 | 1.7 | 1.7 | 0.00 | 0.00 | 0.00 | 38 | 1015.0 |
| 20260504212605 | 80 | 256 | 1.7 | 3.5 | 0.00 | 0.00 | 0.00 | 38 | 1014.9 |
| 20260504212105 | 80 | 270 | 1.7 | 6.1 | 0.00 | 0.00 | 0.00 | 39 | 1015.0 |
| 20260504211605 | 79 | 215 | 1.7 | 2.6 | 0.00 | 0.00 | 0.00 | 39 | 1014.9 |
| 20260504211050 | 80 | 211 | 0.9 | 2.6 | 0.00 | 0.00 | 0.00 | 40 | 1015.0 |
| 20260504210550 | 78 | 263 | 0.9 | 2.6 | 0.00 | 0.00 | 0.00 | 40 | 1015.1 |
| 20260504210035 | 79 | 210 | 1.7 | 3.5 | 0.00 | 0.00 | 0.00 | 40 | 1015.1 |
| 20260504205757 | 80 | 214 | 2.6 | 6.1 | 0.00 | 0.00 | 0.00 | 41 | 1015.0 |
| 20260504205254 | 80 | 242 | 0.0 | 0.9 | 0.00 | 0.00 | 0.00 | 45 | 1015.1 |
| 20260504204755 | 79 | 248 | 0.0 | 1.7 | 0.00 | 0.00 | 0.00 | 38 | 1014.9 |
| 20260504204035 | 80 | 248 | 0.9 | 3.5 | 0.00 | 0.00 | 0.00 | 42 | 1015.3 |
| 20260504203535 | 80 | 253 | 0.9 | 1.7 | 0.00 | 0.00 | 0.00 | 39 | 1015.0 |
| 20260504203035 | 79 | 200 | 1.7 | 5.2 | 0.00 | 0.00 | 0.00 | 38 | 1015.2 |
| 20260504202535 | 80 | 202 | 1.7 | 6.1 | 0.00 | 0.00 | 0.00 | 38 | 1015.2 |
| 20260504202035 | 80 | 240 | 0.9 | 1.7 | 0.00 | 0.00 | 0.00 | 38 | 1015.1 |
| 20260504201535 | 80 | 27 | 1.7 | 1.7 | 0.00 | 0.00 | 0.00 | 37 | 1015.3 |
| 20260504201035 | 79 | 233 | 0.0 | 2.6 | 0.00 | 0.00 | 0.00 | 37 | 1015.1 |
| 20260504200520 | 80 | 251 | 0.9 | 1.7 | 0.00 | 0.00 | 0.00 | 45 | 1015.5 |
| 20260504200005 | 79 | 237 | 0.9 | 1.7 | 0.00 | 0.00 | 0.00 | 40 | 1015.7 |
| 20260504195450 | 78 | 267 | 0.9 | 1.7 | 0.00 | 0.00 | 0.00 | 44 | 1015.7 |
| 20260504194950 | 80 | 259 | 0.9 | 1.7 | 0.00 | 0.00 | 0.00 | 40 | 1015.6 |
| 20260504194450 | 78 | 249 | 0.9 | 1.7 | 0.00 | 0.00 | 0.00 | 44 | 1015.7 |
| 20260504194154 | 78 | 243 | 1.7 | 6.1 | 0.00 | 0.00 | 0.00 | 44 | 1015.9 |
| 20260504193655 | 77 | 220 | 0.9 | 1.7 | 0.00 | 0.00 | 0.00 | 42 | 1016.1 |
| 20260504193156 | 78 | 244 | 0.9 | 0.9 | 0.00 | 0.00 | 0.00 | 45 | 1016.1 |
| 20260504192435 | 77 | 248 | 0.0 | 1.7 | 0.00 | 0.00 | 0.00 | 44 | 1016.1 |
| 20260504191934 | 77 | 212 | 0.0 | 1.7 | 0.00 | 0.00 | 0.00 | 47 | 1016.3 |
| 20260504191655 | 78 | 252 | 1.7 | 2.6 | 0.00 | 0.00 | 0.00 | 44 | 1016.4 |
| 20260504190934 | 77 | 225 | 0.9 | 0.9 | 0.00 | 0.00 | 0.00 | 43 | 1016.3 |
| 20260504190434 | 76 | 257 | 0.0 | 1.7 | 0.00 | 0.00 | 0.00 | 42 | 1016.5 |
| 20260504185920 | 77 | 243 | 0.0 | 2.6 | 0.00 | 0.00 | 0.00 | 54 | 1016.6 |
| 20260504185420 | 79 | 256 | 0.9 | 5.2 | 0.00 | 0.00 | 0.00 | 46 | 1016.4 |
| 20260504184920 | 77 | 246 | 2.6 | 3.5 | 0.00 | 0.00 | 0.00 | 41 | 1016.6 |
| 20260504184420 | 77 | 201 | 1.7 | 3.5 | 0.00 | 0.00 | 0.00 | 45 | 1016.8 |
| 20260504184141 | 78 | 223 | 2.6 | 3.5 | 0.00 | 0.00 | 0.00 | 43 | 1016.7 |
| 20260504183419 | 77 | 256 | 0.0 | 0.9 | 0.00 | 0.00 | 0.00 | 47 | 1016.7 |
| 20260504183139 | 76 | 230 | 0.9 | 1.7 | 0.00 | 0.00 | 0.00 | 45 | 1017.1 |
| 20260504182419 | 77 | 283 | 0.9 | 1.7 | 0.00 | 0.00 | 0.00 | 47 | 1017.1 |
| 20260504181919 | 76 | 106 | 1.7 | 2.6 | 0.00 | 0.00 | 0.00 | 46 | 1016.8 |
| 20260504181419 | 77 | 252 | 0.0 | 1.7 | 0.00 | 0.00 | 0.00 | 49 | 1017.0 |
| 20260504180919 | 78 | 241 | 0.9 | 0.9 | 0.00 | 0.00 | 0.00 | 47 | 1017.1 |
| 20260504180419 | 76 | 272 | 0.9 | 5.2 | 0.00 | 0.00 | 0.00 | 45 | 1017.2 |
| 20260504175904 | 76 | 225 | 0.0 | 1.7 | 0.00 | 0.00 | 0.00 | 52 | 1017.5 |
| 20260504175625 | 75 | 228 | 2.6 | 3.5 | 0.00 | 0.00 | 0.00 | 46 | 1017.4 |
| 20260504174904 | 76 | 247 | 1.7 | 3.5 | 0.00 | 0.00 | 0.00 | 43 | 1017.2 |
| 20260504174404 | 75 | 228 | 0.0 | 0.9 | 0.00 | 0.00 | 0.00 | 45 | 1017.3 |
| 20260504173904 | 75 | 197 | 3.5 | 5.2 | 0.00 | 0.00 | 0.00 | 45 | 1017.7 |
| 20260504173404 | 75 | 254 | 1.7 | 5.2 | 0.00 | 0.00 | 0.00 | 46 | 1017.7 |
| 20260504172904 | 76 | 237 | 1.7 | 2.6 | 0.00 | 0.00 | 0.00 | 45 | 1017.7 |
| 20260504172404 | 76 | 257 | 0.0 | 1.7 | 0.00 | 0.00 | 0.00 | 44 | 1017.6 |
| 20260504171849 | 76 | 237 | 0.9 | 1.7 | 0.00 | 0.00 | 0.00 | 53 | 1017.7 |
| 20260504171349 | 76 | 237 | 0.9 | 2.6 | 0.00 | 0.00 | 0.00 | 43 | 1017.9 |
| 20260504171110 | 75 | 277 | 0.9 | 1.7 | 0.00 | 0.00 | 0.00 | 48 | 1018.1 |
| 20260504170349 | 75 | 258 | 0.9 | 1.7 | 0.00 | 0.00 | 0.00 | 49 | 1018.1 |
| 20260504160318 | 72 | 191 | 0.9 | 2.6 | 0.00 | 0.00 | 0.00 | 50 | 1019.1 |
| 20260504150748 | 68 | 277 | 2.6 | 2.6 | 0.00 | 0.00 | 0.00 | 54 | 1019.2 |
| 20260504150233 | 68 | 233 | 2.6 | 3.5 | 0.00 | 0.00 | 0.00 | 54 | 1019.3 |
| 20260504141218 | 64 | 226 | 0.9 | 1.7 | 0.00 | 0.00 | 0.00 | 66 | 1019.8 |
| 20260504140718 | 64 | 199 | 0.9 | 2.6 | 0.00 | 0.00 | 0.00 | 66 | 1019.9 |
| 20260504140203 | 62 | 231 | 0.9 | 1.7 | 0.00 | 0.00 | 0.00 | 67 | 1020.1 |
| 20260504130633 | 56 | 203 | 0.0 | 0.9 | 0.00 | 0.00 | 0.00 | 79 | 1020.4 |
| 20260504130118 | 55 | 203 | 0.0 | 0.9 | 0.00 | 0.00 | 0.00 | 79 | 1020.4 |
| 20260504110547 | 44 | 222 | 0.0 | 0.0 | 0.00 | 0.00 | 0.00 | 99 | 1020.4 |
| 20260504100532 | 45 | 222 | 0.0 | 0.0 | 0.00 | 0.00 | 0.00 | 99 | 1020.4 |
| 20260504100239 | 45 | 222 | 0.0 | 0.0 | 0.00 | 0.00 | 0.00 | 99 | 1020.4 |
| 20260504081447 | 45 | 233 | 0.0 | 0.0 | 0.00 | 0.00 | 0.00 | 99 | 1020.0 |
| 20260504080947 | 45 | 233 | 0.0 | 0.0 | 0.00 | 0.00 | 0.00 | 99 | 1020.2 |
| 20260504080447 | 45 | 233 | 0.0 | 0.0 | 0.00 | 0.00 | 0.00 | 99 | 1020.1 |
| 20260504050317 | 49 | 234 | 0.0 | 0.0 | 0.00 | 0.00 | 0.00 | 96 | 1021.1 |
| 20260504045803 | 49 | 234 | 0.0 | 0.0 | 0.00 | 0.00 | 0.00 | 95 | 1021.0 |
| 20260504045304 | 49 | 234 | 0.0 | 0.0 | 0.00 | 0.00 | 0.00 | 94 | 1021.3 |
| 20260504045024 | 48 | 233 | 0.0 | 0.0 | 0.00 | 0.00 | 0.00 | 93 | 1021.3 |
| 20260504044303 | 49 | 233 | 0.0 | 0.0 | 0.00 | 0.00 | 0.00 | 94 | 1021.2 |
| 20260504043803 | 49 | 234 | 0.0 | 0.0 | 0.00 | 0.00 | 0.00 | 94 | 1021.2 |
| 20260504043303 | 49 | 233 | 0.0 | 0.0 | 0.00 | 0.00 | 0.00 | 95 | 1021.2 |
| 20260504042803 | 49 | 233 | 0.0 | 0.0 | 0.00 | 0.00 | 0.00 | 95 | 1021.3 |
| 20260504042248 | 49 | 234 | 0.0 | 0.0 | 0.00 | 0.00 | 0.00 | 95 | 1021.2 |
| 20260504042010 | 49 | 233 | 0.0 | 0.0 | 0.00 | 0.00 | 0.00 | 95 | 1021.4 |
| 20260504041507 | 49 | 234 | 0.0 | 0.0 | 0.00 | 0.00 | 0.00 | 96 | 1021.2 |
| 20260504041007 | 49 | 234 | 0.0 | 0.0 | 0.00 | 0.00 | 0.00 | 96 | 1021.2 |
| 20260504040233 | 49 | 234 | 0.0 | 0.0 | 0.00 | 0.00 | 0.00 | 95 | 1021.4 |
| 20260504035733 | 49 | 233 | 0.0 | 0.0 | 0.00 | 0.00 | 0.00 | 95 | 1021.6 |
| 20260504035233 | 49 | 233 | 0.0 | 0.0 | 0.00 | 0.00 | 0.00 | 95 | 1021.4 |
| 20260504034733 | 49 | 234 | 0.0 | 0.0 | 0.00 | 0.00 | 0.00 | 94 | 1021.5 |
| 20260504034233 | 49 | 234 | 0.0 | 0.0 | 0.00 | 0.00 | 0.00 | 93 | 1021.9 |
| 20260504033733 | 49 | 233 | 0.0 | 0.0 | 0.00 | 0.00 | 0.00 | 93 | 1021.9 |
| 20260504033233 | 49 | 233 | 0.0 | 0.0 | 0.00 | 0.00 | 0.00 | 94 | 1021.9 |
| 20260504032732 | 49 | 234 | 0.0 | 0.0 | 0.00 | 0.00 | 0.00 | 94 | 1021.9 |
| 20260504032232 | 49 | 234 | 0.0 | 0.0 | 0.00 | 0.00 | 0.00 | 93 | 1021.8 |
| 20260504031733 | 49 | 234 | 0.0 | 0.0 | 0.00 | 0.00 | 0.00 | 93 | 1022.0 |
| 20260504031232 | 49 | 234 | 0.0 | 0.0 | 0.00 | 0.00 | 0.00 | 93 | 1021.8 |
| 20260504030732 | 49 | 234 | 0.0 | 0.0 | 0.00 | 0.00 | 0.00 | 92 | 1021.6 |
| 20260504030218 | 50 | 234 | 0.0 | 0.0 | 0.00 | 0.00 | 0.00 | 92 | 1021.6 |
| 20260504025718 | 50 | 234 | 0.0 | 0.0 | 0.00 | 0.00 | 0.00 | 92 | 1021.6 |
| 20260504025218 | 50 | 234 | 0.0 | 0.0 | 0.00 | 0.00 | 0.00 | 92 | 1021.5 |
| 20260504024938 | 50 | 234 | 0.0 | 0.0 | 0.00 | 0.00 | 0.00 | 92 | 1021.5 |
| 20260504024218 | 50 | 233 | 0.0 | 0.0 | 0.00 | 0.00 | 0.00 | 91 | 1021.5 |
| 20260504023936 | 50 | 234 | 0.0 | 0.0 | 0.00 | 0.00 | 0.00 | 91 | 1021.4 |
| 20260504023217 | 50 | 234 | 0.0 | 0.0 | 0.00 | 0.00 | 0.00 | 91 | 1021.4 |
| 20260504022718 | 50 | 234 | 0.0 | 0.0 | 0.00 | 0.00 | 0.00 | 90 | 1021.3 |
| 20260504022218 | 51 | 234 | 0.0 | 0.0 | 0.00 | 0.00 | 0.00 | 89 | 1021.1 |
| 20260504021717 | 51 | 234 | 0.0 | 0.0 | 0.00 | 0.00 | 0.00 | 88 | 1021.0 |
| 20260504021437 | 51 | 233 | 0.0 | 0.0 | 0.00 | 0.00 | 0.00 | 88 | 1020.9 |
| 20260504020717 | 51 | 234 | 0.0 | 0.0 | 0.00 | 0.00 | 0.00 | 88 | 1021.2 |
| 20260504020203 | 51 | 234 | 0.0 | 0.0 | 0.00 | 0.00 | 0.00 | 87 | 1020.9 |
| 20260504015703 | 51 | 234 | 0.0 | 0.0 | 0.00 | 0.00 | 0.00 | 86 | 1021.0 |
| 20260504015203 | 51 | 234 | 0.0 | 0.0 | 0.00 | 0.00 | 0.00 | 87 | 1021.0 |
| 20260504014703 | 52 | 234 | 0.0 | 0.0 | 0.00 | 0.00 | 0.00 | 86 | 1021.3 |
| 20260504014203 | 52 | 234 | 0.0 | 0.0 | 0.00 | 0.00 | 0.00 | 86 | 1021.0 |
| 20260504013924 | 52 | 234 | 0.0 | 0.0 | 0.00 | 0.00 | 0.00 | 85 | 1020.8 |
| 20260504013202 | 52 | 234 | 0.0 | 0.0 | 0.00 | 0.00 | 0.00 | 84 | 1020.8 |
| 20260504012702 | 52 | 234 | 0.0 | 0.0 | 0.00 | 0.00 | 0.00 | 84 | 1020.7 |
| 20260504012202 | 52 | 233 | 0.0 | 0.0 | 0.00 | 0.00 | 0.00 | 84 | 1020.7 |
| 20260504011702 | 52 | 234 | 0.0 | 0.0 | 0.00 | 0.00 | 0.00 | 81 | 1020.6 |
| 20260504011202 | 53 | 234 | 0.0 | 0.0 | 0.00 | 0.00 | 0.00 | 82 | 1020.7 |
| 20260504010132 | 53 | 234 | 0.0 | 0.0 | 0.00 | 0.00 | 0.00 | 82 | 1020.5 |
| 20260504010120 | 54 | 234 | 0.0 | 0.0 | 0.00 | 0.00 | 0.00 | 79 | 1020.3 |
| 20260504005132 | 54 | 234 | 0.0 | 0.0 | 0.00 | 0.00 | 0.00 | 78 | 1020.3 |
| 20260504004632 | 54 | 234 | 0.0 | 0.0 | 0.00 | 0.00 | 0.00 | 78 | 1020.4 |
| 20260504004132 | 55 | 234 | 0.0 | 0.0 | 0.00 | 0.00 | 0.00 | 79 | 1020.2 |
| 20260504003632 | 56 | 234 | 0.0 | 0.0 | 0.00 | 0.00 | 0.00 | 76 | 1020.2 |
| 20260504003132 | 57 | 234 | 0.0 | 0.0 | 0.00 | 0.00 | 0.00 | 76 | 1020.1 |
| 20260504002632 | 57 | 234 | 0.0 | 0.0 | 0.00 | 0.00 | 0.00 | 73 | 1020.0 |
| 20260504002132 | 58 | 234 | 0.0 | 0.0 | 0.00 | 0.00 | 0.00 | 73 | 1020.1 |
| 20260504001632 | 58 | 236 | 0.0 | 0.0 | 0.00 | 0.00 | 0.00 | 69 | 1020.0 |
| 20260504001351 | 59 | 255 | 0.0 | 0.0 | 0.00 | 0.00 | 0.00 | 70 | 1019.8 |
| 20260504000852 | 60 | 234 | 0.0 | 0.0 | 0.00 | 0.00 | 0.00 | 70 | 1019.8 |
| 20260504000117 | 61 | 235 | 0.0 | 0.0 | 0.00 | 0.00 | 0.00 | 70 | 1019.7 |
| 20260503235617 | 62 | 246 | 0.0 | 0.9 | 0.00 | 0.00 | 0.00 | 65 | 1019.6 |
| 20260503235117 | 64 | 245 | 0.0 | 0.0 | 0.00 | 0.00 | 0.00 | 65 | 1019.7 |
| 20260503234617 | 65 | 216 | 0.0 | 0.9 | 0.00 | 0.00 | 0.00 | 54 | 1019.5 |
| 20260503234117 | 65 | 230 | 0.0 | 0.0 | 0.00 | 0.00 | 0.00 | 52 | 1019.4 |
| 20260503233617 | 67 | 233 | 0.0 | 0.9 | 0.00 | 0.00 | 0.00 | 40 | 1019.1 |
| 20260503233117 | 67 | 248 | 0.9 | 1.7 | 0.00 | 0.00 | 0.00 | 43 | 1019.1 |
| 20260503232617 | 68 | 268 | 0.9 | 0.9 | 0.00 | 0.00 | 0.00 | 40 | 1019.2 |
| 20260503232337 | 69 | 274 | 0.9 | 0.9 | 0.00 | 0.00 | 0.00 | 41 | 1019.2 |
| 20260503231837 | 68 | 246 | 0.0 | 0.9 | 0.00 | 0.00 | 0.00 | 42 | 1019.2 |
| 20260503231117 | 69 | 232 | 0.9 | 1.7 | 0.00 | 0.00 | 0.00 | 39 | 1019.3 |
| 20260503230835 | 69 | 276 | 0.9 | 1.7 | 0.00 | 0.00 | 0.00 | 38 | 1019.2 |
| 20260503225602 | 70 | 256 | 0.0 | 1.7 | 0.00 | 0.00 | 0.00 | 38 | 1019.2 |
| 20260503225102 | 70 | 273 | 0.9 | 1.7 | 0.00 | 0.00 | 0.00 | 39 | 1019.1 |
| 20260503224602 | 70 | 267 | 0.9 | 0.9 | 0.00 | 0.00 | 0.00 | 40 | 1019.2 |
| 20260503224102 | 71 | 178 | 1.7 | 1.7 | 0.00 | 0.00 | 0.00 | 36 | 1019.2 |
| 20260503223602 | 70 | 246 | 0.9 | 1.7 | 0.00 | 0.00 | 0.00 | 35 | 1019.2 |
| 20260503223102 | 70 | 277 | 0.9 | 1.7 | 0.00 | 0.00 | 0.00 | 36 | 1019.3 |
| 20260503222602 | 70 | 220 | 0.9 | 1.7 | 0.00 | 0.00 | 0.00 | 37 | 1019.4 |
| 20260503222102 | 70 | 47 | 1.7 | 2.6 | 0.00 | 0.00 | 0.00 | 35 | 1019.3 |
| 20260503221602 | 70 | 287 | 0.9 | 1.7 | 0.00 | 0.00 | 0.00 | 35 | 1019.4 |